Weather History for New Orleans Lakefront, LA

Change the Weather History Date:

Tuesday, February 26, 2013

  Actual Average Record
Temperature  
Mean Temperature 53 °F 59 °F  
Max Temperature 60 °F 68 °F 85 °F (1972)
Min Temperature 46 °F 50 °F 29 °F (1965)
Degree Days  
Heating Degree Days 12 7  
Month to date heating degree days 184 239  
Since 1 July heating degree days 869 1095  
Cooling Degree Days 0 1  
Month to date cooling degree days 7 26  
Year to date cooling degree days 32 42  
Growing Degree Days 7 (Base 50)    
Moisture  
Dew Point 41 °F    
Average Humidity 64    
Maximum Humidity 77    
Minimum Humidity 50    
Precipitation  
Precipitation 0.00 in 0.17 in 2.35 in (1966)
Month to date precipitation 7.21 4.97  
Year to date precipitation 13.80 10.12  
Snow  
Snow 0.00 in - - ()
Month to date snowfall 0.0  
Since 1 July snowfall 0.0  
Snow Depth 0.00 in    
Sea Level Pressure  
Sea Level Pressure 29.77 in    
Wind  
Wind Speed 14 mph (West)    
Max Wind Speed 29 mph    
Max Gust Speed 35 mph    
Visibility 10 miles    
Events      
T = Trace of Precipitation, MM = Missing Value Source: NWS Daily Summary

Daily Weather History Graph

Daily Weather History Graph

Search for Another Location

Airport:

Trip Planner

Search our weather history database for the weather conditions in past years. The results will help you decide how hot, cold, wet, or windy it might be!

Date:

Astronomy

Feb. 26, 2013 Rise Set
Actual Time 6:28 AM CST 5:57 PM CST
Civil Twilight 6:04 AM CST 6:21 PM CST
Nautical Twilight 5:37 AM CST 6:49 PM CST
Astronomical Twilight 5:09 AM CST 7:16 PM CST
Moon 7:04 PM CST 6:39 AM CST
Length of Visible Light 12h 16m
Length of Day
11h 28m
Full, 99% of the Moon is Illuminated
Feb 26
Full
Mar 4
Last Quarter
Mar 11
New
Mar 19
First Quarter
Mar 27
Full

Hourly Weather History & Observations

Time (CST) Temp. Dew Point Humidity Pressure Visibility Wind Dir Wind Speed Gust Speed Precip Events Conditions
12:53 AM 62.1 °F 46.0 °F 56% 29.58 in 10.0 mi WSW 18.4 mph - N/A   Clear
1:53 AM 60.1 °F 43.0 °F 53% 29.60 in 10.0 mi WSW 23.0 mph 36.8 mph N/A   Clear
2:53 AM 57.0 °F 39.0 °F 51% 29.61 in 10.0 mi WSW 27.6 mph - N/A   Clear
3:53 AM 55.9 °F 39.0 °F 53% 29.61 in 10.0 mi West 32.2 mph 40.3 mph N/A   Clear
4:53 AM 53.1 °F 37.9 °F 57% 29.63 in 10.0 mi West 29.9 mph 39.1 mph N/A   Clear
5:53 AM 53.1 °F 37.9 °F 57% 29.67 in 10.0 mi West 29.9 mph - N/A   Clear
6:53 AM 52.0 °F 37.0 °F 57% 29.71 in 10.0 mi West 26.5 mph 35.7 mph N/A   Partly Cloudy
7:53 AM 52.0 °F 37.0 °F 57% 29.73 in 10.0 mi West 28.8 mph 34.5 mph N/A   Clear
8:53 AM 53.1 °F 37.9 °F 57% 29.77 in 10.0 mi West 28.8 mph 36.8 mph N/A   Clear
9:53 AM 54.0 °F 39.0 °F 57% 29.79 in 10.0 mi West 24.2 mph - N/A   Clear
10:53 AM 57.0 °F 39.0 °F 51% 29.80 in 10.0 mi West 23.0 mph - N/A   Clear
11:53 AM 57.9 °F 39.9 °F 51% 29.79 in 10.0 mi West 19.6 mph - N/A   Clear
12:53 PM 59.0 °F 41.0 °F 51% 29.77 in 10.0 mi West 21.9 mph - N/A   Clear
1:53 PM 60.1 °F 41.0 °F 49% 29.76 in 10.0 mi WNW 18.4 mph - N/A   Clear
2:53 PM 60.1 °F 42.1 °F 51% 29.77 in 10.0 mi West 13.8 mph - N/A   Clear
3:53 PM 60.1 °F 41.0 °F 49% 29.79 in 10.0 mi West 13.8 mph - N/A   Clear
4:53 PM 60.1 °F 42.1 °F 51% 29.80 in 10.0 mi West 16.1 mph - N/A   Clear
5:53 PM 59.0 °F 42.1 °F 53% 29.82 in 10.0 mi West 17.3 mph - N/A   Clear
6:53 PM 59.0 °F 42.1 °F 53% 29.85 in 10.0 mi SW 10.4 mph - N/A   Clear
7:53 PM 57.9 °F 42.1 °F 56% 29.87 in 10.0 mi WSW 10.4 mph - N/A   Clear
8:53 PM 57.0 °F 42.1 °F 57% 29.90 in 10.0 mi SW 9.2 mph - N/A   Clear
9:53 PM 57.0 °F 43.0 °F 59% 29.92 in 10.0 mi SW 9.2 mph - N/A   Clear
10:53 PM 55.9 °F 44.1 °F 64% 29.93 in 10.0 mi SW 9.2 mph - N/A   Clear
11:53 PM 57.0 °F 45.0 °F 64% 29.93 in 10.0 mi WSW 9.2 mph - N/A   Clear